EW3281 Weather Reports


Display with metric or nautical units.
time (UTC)temp
F
wind
direction
speed
MPH
gust
MPH
rain 1hr
in
rain 24hr
in
rain mn
in
humidity
%
barometer
mb
20260508180545 62 250 0.0 0.0 0.00 0.00 0.00 36 1006.8
20260508180044 62 21 0.0 0.0 0.00 0.00 0.00 36 1006.9
20260508175544 63 278 0.0 0.0 0.00 0.00 0.00 33 1007.0
20260508175043 63 252 0.0 2.0 0.00 0.00 0.00 35 1006.9
20260508174542 64 268 0.0 2.0 0.00 0.00 0.00 36 1007.0
20260508173544 63 188 0.0 2.0 0.00 0.00 0.00 35 1007.2
20260508173041 63 224 0.0 2.0 0.00 0.00 0.00 35 1007.2
20260508172540 62 156 0.0 1.0 0.00 0.00 0.00 35 1007.2
20260508172040 63 136 0.0 3.0 0.00 0.00 0.00 33 1007.3
20260508171539 64 230 0.0 3.0 0.00 0.00 0.00 34 1007.2
20260508171040 64 190 0.0 0.0 0.00 0.00 0.00 35 1007.2
20260508170539 64 225 0.0 0.0 0.00 0.00 0.00 36 1007.2
20260508170041 64 217 0.0 0.0 0.00 0.00 0.00 35 1007.3
20260508165537 64 225 0.0 0.0 0.00 0.00 0.00 35 1007.3
20260508165037 64 333 0.0 1.0 0.00 0.00 0.00 37 1007.5
20260508164537 64 246 0.0 1.0 0.00 0.00 0.00 33 1007.4
20260508163537 64 112 0.0 3.0 0.00 0.00 0.00 34 1007.6
20260508163039 64 160 0.0 3.0 0.00 0.00 0.00 33 1007.5
20260508162536 64 214 0.0 1.0 0.00 0.00 0.00 35 1007.6
20260508162036 63 227 0.0 1.0 0.00 0.00 0.00 35 1007.6
20260508161535 62 352 0.0 1.0 0.00 0.00 0.00 37 1007.6
20260508161034 62 153 0.0 0.0 0.00 0.00 0.00 36 1007.5
20260508160534 63 301 0.0 0.0 0.00 0.00 0.00 34 1007.6
20260508160031 62 236 0.0 0.0 0.00 0.00 0.00 38 1007.6
20260508155530 61 219 0.0 1.0 0.00 0.00 0.00 37 1007.8
20260508155029 62 220 0.0 1.0 0.00 0.00 0.00 35 1007.9
20260508154528 61 198 0.0 2.0 0.00 0.00 0.00 36 1008.0
20260508153528 61 207 0.0 0.0 0.00 0.00 0.00 38 1008.1
20260508153026 61 325 0.0 0.0 0.00 0.00 0.00 40 1008.1
20260508152526 60 212 0.0 0.0 0.00 0.00 0.00 39 1008.2
20260508152028 60 193 0.0 2.0 0.00 0.00 0.00 40 1008.3
20260508151525 60 198 0.0 1.0 0.00 0.00 0.00 39 1008.3
20260508151028 60 238 0.0 0.0 0.00 0.00 0.00 42 1008.3
20260508150525 59 25 0.0 0.0 0.00 0.00 0.00 39 1008.2
20260508150027 59 233 0.0 0.0 0.00 0.00 0.00 43 1008.3
20260508145524 59 238 0.0 0.0 0.00 0.00 0.00 40 1008.3
20260508145025 58 187 0.0 0.0 0.00 0.00 0.00 39 1008.3
20260508144524 58 221 0.0 0.0 0.00 0.00 0.00 38 1008.4
20260508143523 58 221 0.0 1.0 0.00 0.00 0.00 40 1008.4
20260508143022 58 255 0.0 1.0 0.00 0.00 0.00 43 1008.5
20260508142521 57 184 0.0 0.0 0.00 0.00 0.00 42 1008.5
20260508142022 57 103 0.0 0.0 0.00 0.00 0.00 41 1008.5
20260508141522 57 219 0.0 0.0 0.00 0.00 0.00 42 1008.5
20260508141023 56 238 0.0 0.0 0.00 0.00 0.00 44 1008.4
20260508140524 56 250 0.0 0.0 0.00 0.00 0.00 43 1008.5
20260508140021 56 183 0.0 0.0 0.00 0.00 0.00 43 1008.5
20260508135524 55 328 0.0 0.0 0.00 0.00 0.00 44 1008.6
20260508135020 55 305 0.0 0.0 0.00 0.00 0.00 47 1008.7
20260508134520 54 179 0.0 0.0 0.00 0.00 0.00 48 1008.7
20260508133526 53 256 0.0 0.0 0.00 0.00 0.00 45 1008.8
20260508133021 53 213 0.0 0.0 0.00 0.00 0.00 45 1008.9
20260508132520 53 232 0.0 1.0 0.00 0.00 0.00 47 1009.0
20260508132020 53 223 0.0 1.0 0.00 0.00 0.00 46 1009.0
20260508131521 52 232 0.0 1.0 0.00 0.00 0.00 47 1009.0
20260508131019 52 228 0.0 1.0 0.00 0.00 0.00 47 1009.0
20260508130520 52 221 0.0 0.0 0.00 0.00 0.00 48 1009.1
20260508130021 52 240 0.0 0.0 0.00 0.00 0.00 48 1009.1
20260508125523 52 219 0.0 1.0 0.00 0.00 0.00 48 1009.1
20260508125020 51 351 0.0 2.0 0.00 0.00 0.00 48 1009.0
20260508124519 51 288 0.0 0.0 0.00 0.00 0.00 51 1009.0
20260508123535 51 227 0.0 0.0 0.00 0.00 0.00 51 1009.1
20260508123035 50 228 0.0 0.0 0.00 0.01 0.00 52 1009.2
20260508122534 50 172 0.0 0.0 0.00 0.01 0.00 53 1009.2
20260508122034 50 360 0.0 0.0 0.00 0.01 0.00 55 1009.1
20260508121540 50 231 0.0 0.0 0.00 0.01 0.00 56 1009.1
20260508121033 49 220 0.0 0.0 0.00 0.01 0.00 55 1009.1
20260508120532 49 217 0.0 0.0 0.00 0.01 0.00 56 1009.0
20260508120040 50 248 0.0 0.0 0.00 0.01 0.00 56 1009.0
20260508115533 49 243 0.0 0.0 0.00 0.01 0.00 56 1009.0
20260508115031 49 221 0.0 0.0 0.00 0.01 0.00 55 1009.0
20260508114532 48 207 0.0 0.0 0.00 0.01 0.00 55 1009.0
20260508113546 48 212 0.0 0.0 0.00 0.01 0.00 57 1008.8
20260508113046 47 316 0.0 0.0 0.00 0.03 0.00 57 1008.8
20260508112546 47 232 0.0 0.0 0.00 0.03 0.00 61 1008.8
20260508112045 47 232 0.0 0.0 0.00 0.03 0.00 60 1008.9
20260508111558 47 232 0.0 0.0 0.00 0.03 0.00 59 1008.9
20260508111044 47 228 0.0 0.0 0.00 0.03 0.00 60 1008.8
20260508110544 46 228 0.0 0.0 0.00 0.03 0.00 59 1008.8
20260508110043 46 238 0.0 0.0 0.00 0.03 0.00 60 1008.8
20260508105546 45 236 0.0 0.0 0.00 0.03 0.00 64 1008.7
20260508105041 0 0.0 0.0 0.00 0.03 0.00 1008.7
20260508104541 0 0.0 0.0 0.00 0.03 0.00 1008.7
20260508103509 0 0.0 0.0 0.00 0.03 0.00 1008.6
20260508103007 0 0.0 0.0 0.00 0.03 0.00 1008.5
20260508102506 0 0.0 0.0 0.00 0.03 0.00 1008.5
20260508102007 0 0.0 0.0 0.00 0.03 0.00 1008.5
20260508101503 0 0.0 0.0 0.00 0.03 0.00 1008.4
20260508101002 0 0.0 0.0 0.00 0.03 0.00 1008.2
20260508100500 0 0.0 0.0 0.00 0.03 0.00 1008.1
20260508095558 0 0.0 0.0 0.00 0.03 0.00 1008.1
20260508095056 0 0.0 0.0 0.00 0.03 0.00 1008.1
20260508094600 0 0.0 0.0 0.00 0.03 0.00 1008.1
20260508093556 0 0.0 0.0 0.00 0.03 0.00 1008.0
20260508093101 0 0.0 0.0 0.00 0.03 0.00 1008.0
20260508092553 0 0.0 0.0 0.00 0.03 0.00 1007.9
20260508092051 0 0.0 0.0 0.00 0.03 0.00 1007.8
20260508091603 0 0.0 0.0 0.00 0.03 0.00 1007.8
20260508091049 42 33 0.0 0.0 0.00 0.03 0.00 66 1007.7
20260508090548 42 33 0.0 0.0 0.00 0.03 0.00 66 1007.7
20260508090052 43 34 0.0 0.0 0.00 0.03 0.00 65 1007.7
20260508085547 43 35 0.0 0.0 0.00 0.03 0.00 65 1007.7
20260508085048 43 34 0.0 0.0 0.00 0.03 0.00 65 1007.7
20260508084548 43 34 0.0 0.0 0.00 0.03 0.00 63 1007.8
20260508083544 43 35 0.0 0.0 0.00 0.03 0.00 63 1007.7
20260508083049 43 233 0.0 0.0 0.00 0.04 0.00 64 1007.7
20260508082543 43 243 0.0 0.0 0.00 0.04 0.00 65 1007.7
20260508082043 43 243 0.0 0.0 0.00 0.04 0.00 65 1007.5
20260508081547 43 243 0.0 0.0 0.00 0.04 0.00 65 1007.5
20260508081042 43 243 0.0 0.0 0.00 0.04 0.00 64 1007.3
20260508080539 43 243 0.0 0.0 0.00 0.04 0.00 64 1007.2
20260508080038 43 243 0.0 0.0 0.00 0.04 0.00 65 1007.2
20260508075540 43 243 0.0 0.0 0.00 0.04 0.00 65 1007.0
20260508075036 43 243 0.0 0.0 0.00 0.04 0.00 64 1007.0
20260508074535 44 243 0.0 0.0 0.00 0.04 0.00 62 1006.9
20260508073537 45 243 0.0 0.0 0.00 0.04 0.00 60 1006.7
20260508073035 45 243 0.0 0.0 0.00 0.06 0.00 59 1006.7
20260508072534 46 243 0.0 0.0 0.00 0.06 0.00 57 1006.7
20260508072033 47 243 0.0 0.0 0.00 0.06 0.00 56 1006.6
20260508071533 47 243 0.0 0.0 0.00 0.06 0.00 55 1006.6
20260508071032 47 243 0.0 0.0 0.00 0.06 0.00 54 1006.5
20260508070533 47 240 0.0 0.0 0.00 0.06 0.00 53 1006.4
20260508070030 48 240 0.0 0.0 0.00 0.06 0.00 53 1006.5
20260508065529 48 240 0.0 0.0 0.00 0.06 0.00 52 1006.4
20260508065028 48 208 0.0 0.0 0.00 0.06 0.00 51 1006.3
20260508064529 48 280 0.0 0.0 0.00 0.06 0.00 51 1006.3
20260508063528 48 242 0.0 0.0 0.00 0.06 0.00 51 1006.2
20260508063024 48 233 0.0 0.0 0.00 0.06 0.00 51 1006.1
20260508062523 49 243 0.0 0.0 0.00 0.06 0.00 51 1006.0
20260508062024 49 228 0.0 0.0 0.00 0.06 0.00 50 1005.9
20260508061527 49 222 0.0 0.0 0.00 0.06 0.00 50 1005.9
20260508061024 49 244 0.0 0.0 0.00 0.06 0.00 51 1006.0
20260508060525 49 234 0.0 0.0 0.00 0.06 0.00 50 1006.1
20260508060021 49 233 0.0 0.0 0.00 0.06 0.00 49 1006.0
20260508055521 49 238 0.0 0.0 0.00 0.06 0.00 49 1006.0
20260508055020 50 236 0.0 0.0 0.00 0.06 0.00 48 1006.0
20260508054520 50 250 0.0 0.0 0.00 0.06 0.00 49 1006.0
20260508053521 50 233 0.0 0.0 0.00 0.06 0.00 49 1006.0
20260508053020 50 238 0.0 0.0 0.00 0.06 0.00 48 1006.0
20260508052520 50 215 0.0 0.0 0.00 0.06 0.00 48 1006.1
20260508052020 50 236 0.0 0.0 0.00 0.06 0.00 48 1006.2
20260508051528 51 233 0.0 0.0 0.00 0.06 0.00 49 1006.2
20260508051018 51 241 0.0 0.0 0.00 0.06 0.00 48 1006.3
20260508050517 51 248 0.0 0.0 0.00 0.06 0.00 48 1006.3
20260508050016 51 231 0.0 0.0 0.00 0.06 0.00 47 1006.4
20260508045519 52 227 0.0 0.0 0.00 0.06 0.00 46 1006.4
20260508045015 52 249 0.0 0.0 0.00 0.06 0.00 46 1006.4
20260508044514 52 239 0.0 0.0 0.00 0.06 0.00 47 1006.3
20260508043509 52 242 0.0 2.0 0.00 0.06 0.00 45 1006.3
20260508043017 52 221 0.0 2.0 0.00 0.06 0.00 45 1006.3
20260508042510 52 243 0.0 0.0 0.00 0.06 0.00 45 1006.3
20260508042008 52 243 0.0 1.0 0.00 0.06 0.00 45 1006.2
20260508041510 52 339 0.0 2.0 0.00 0.06 0.00 45 1006.3
20260508041008 53 216 0.0 2.0 0.00 0.06 0.00 44 1006.2
20260508040508 53 220 0.0 2.0 0.00 0.06 0.00 44 1006.3
20260508040007 53 198 0.0 0.0 0.00 0.06 0.00 44 1006.3
20260508035509 53 219 0.0 0.0 0.00 0.06 0.00 44 1006.3
20260508035006 53 236 0.0 0.0 0.00 0.06 0.00 44 1006.3
20260508034506 53 290 0.0 0.0 0.00 0.06 0.00 44 1006.2
20260508033513 53 231 0.0 0.0 0.00 0.06 0.00 43 1006.3
20260508033013 53 251 0.0 0.0 0.00 0.06 0.00 43 1006.3
20260508032514 53 235 0.0 0.0 0.00 0.06 0.00 43 1006.3
20260508032015 53 238 0.0 0.0 0.00 0.06 0.00 43 1006.2
20260508031513 53 236 0.0 0.0 0.00 0.06 0.00 43 1006.3
20260508031013 53 233 0.0 0.0 0.00 0.06 0.00 44 1006.3
20260508030515 53 215 0.0 0.0 0.00 0.06 0.00 43 1006.4
20260508030013 53 241 0.0 0.0 0.00 0.06 0.00 44 1006.4
20260508025514 53 208 0.0 0.0 0.00 0.06 0.00 43 1006.5
20260508025013 53 219 0.0 0.0 0.00 0.06 0.00 43 1006.6
20260508024513 53 235 0.0 0.0 0.00 0.06 0.00 43 1006.7
20260508023509 53 239 0.0 0.0 0.00 0.06 0.00 43 1006.7
20260508023009 53 65 0.0 0.0 0.00 0.06 0.00 44 1006.6
20260508022508 53 223 0.0 0.0 0.00 0.06 0.00 43 1006.5
20260508022007 53 236 0.0 0.0 0.00 0.06 0.00 42 1006.6
20260508021506 53 30 0.0 0.0 0.00 0.06 0.00 42 1006.6
20260508021009 54 238 0.0 0.0 0.00 0.06 0.00 42 1006.7
20260508020505 54 251 0.0 1.0 0.00 0.06 0.00 42 1006.7
20260508020010 54 241 0.0 1.0 0.00 0.06 0.00 42 1006.8
20260508015505 54 205 0.0 0.0 0.00 0.06 0.00 42 1006.8
20260508015005 54 226 0.0 0.0 0.00 0.06 0.00 41 1006.8
20260508014505 54 236 0.0 0.0 0.00 0.06 0.00 42 1006.7
20260508013600 54 237 0.0 0.0 0.00 0.06 0.00 42 1006.7
20260508013058 55 245 0.0 0.0 0.00 0.06 0.00 42 1006.7
20260508012557 55 89 0.0 0.0 0.00 0.06 0.00 41 1006.6
20260508012057 55 27 0.0 0.0 0.00 0.06 0.00 42 1006.4
20260508011608 55 252 0.0 0.0 0.00 0.06 0.00 42 1006.4
20260508011055 55 221 0.0 0.0 0.00 0.06 0.00 43 1006.4
20260508010555 55 219 0.0 0.0 0.00 0.06 0.00 42 1006.4
20260508010054 55 186 0.0 0.0 0.00 0.06 0.00 42 1006.3
20260508005553 55 250 0.0 1.0 0.00 0.06 0.00 41 1006.1
20260508005053 56 243 0.0 0.0 0.00 0.06 0.00 42 1006.1
20260508004558 56 237 0.0 0.0 0.00 0.06 0.00 41 1006.0
20260508003552 56 241 0.0 0.0 0.00 0.06 0.00 40 1006.0
20260508003051 56 226 0.0 0.0 0.00 0.06 0.00 40 1005.9
20260508002550 57 231 0.0 0.0 0.00 0.06 0.00 40 1005.6
20260508002049 57 158 0.0 0.0 0.00 0.06 0.00 39 1005.4
20260508001551 57 226 0.0 0.0 0.00 0.06 0.00 39 1005.1
20260508001048 57 217 0.0 0.0 0.00 0.06 0.00 39 1005.1
20260508000547 57 13 0.0 0.0 0.00 0.06 0.00 37 1005.0
20260508000047 57 107 0.0 0.0 0.00 0.06 0.00 38 1005.0
20260507235546 58 248 0.0 0.0 0.00 0.06 0.00 38 1005.0
20260507235045 58 246 0.0 0.0 0.00 0.06 0.00 37 1004.9
20260507234550 58 235 0.0 0.0 0.00 0.06 0.00 39 1004.9
20260507233542 59 236 0.0 0.0 0.00 0.06 0.00 38 1004.8
20260507233041 59 229 0.0 0.0 0.00 0.07 0.00 38 1004.8
20260507232543 59 246 0.0 0.0 0.00 0.07 0.00 38 1004.8
20260507232041 60 139 0.0 1.0 0.00 0.07 0.00 37 1004.7
20260507231546 60 221 0.0 1.0 0.00 0.07 0.00 37 1004.6
20260507231041 60 233 0.0 1.0 0.00 0.07 0.00 37 1004.6
20260507230537 60 208 0.0 1.0 0.00 0.07 0.00 36 1004.5
20260507230034 61 148 0.0 1.0 0.00 0.07 0.00 35 1004.3
20260507225534 62 238 0.0 1.0 0.00 0.07 0.00 35 1004.3
20260507225036 62 161 0.0 1.0 0.00 0.07 0.00 35 1004.3
20260507224534 63 236 0.0 0.0 0.00 0.07 0.00 34 1004.2
20260507223535 64 28 0.0 0.0 0.00 0.07 0.00 35 1004.1
20260507223034 65 230 0.0 0.0 0.00 0.13 0.00 34 1004.1
20260507222534 65 207 0.0 0.0 0.00 0.13 0.00 32 1004.0
20260507222034 65 229 0.0 1.0 0.00 0.13 0.00 33 1004.0
20260507221533 66 226 0.0 2.0 0.00 0.13 0.00 32 1004.0
20260507221034 66 75 0.0 0.0 0.00 0.13 0.00 33 1003.9
20260507220533 67 216 0.0 0.0 0.00 0.13 0.00 33 1004.0
20260507220033 66 241 0.0 1.0 0.00 0.13 0.00 32 1004.0
20260507215533 67 136 0.0 5.0 0.00 0.13 0.00 31 1003.9
20260507215033 67 293 0.0 5.0 0.00 0.13 0.00 32 1003.9
20260507214532 67 236 0.0 0.0 0.00 0.13 0.00 31 1003.8
20260507213531 67 205 0.0 0.0 0.00 0.13 0.00 29 1003.8
20260507213040 67 261 0.0 0.0 0.00 0.15 0.00 31 1003.8
20260507212531 66 238 0.0 0.0 0.00 0.15 0.00 29 1003.6
20260507212031 67 226 0.0 0.0 0.00 0.15 0.00 31 1003.6
20260507211534 67 240 0.0 0.0 0.00 0.15 0.00 30 1003.6
20260507211031 67 321 0.0 0.0 0.00 0.15 0.00 30 1003.5
20260507210531 67 298 0.0 0.0 0.00 0.15 0.00 31 1003.5
20260507210031 67 225 0.0 5.0 0.00 0.15 0.00 29 1003.6
20260507205531 67 219 0.0 6.0 0.00 0.15 0.00 28 1003.5
20260507205030 67 225 0.0 0.0 0.00 0.15 0.00 29 1003.5
20260507204530 68 219 0.0 4.0 0.00 0.15 0.00 32 1003.5
20260507203539 67 217 1.0 6.0 0.00 0.15 0.00 30 1003.4
20260507203044 67 217 0.0 0.0 0.00 0.15 0.00 32 1003.5
20260507202537 67 199 0.0 1.0 0.00 0.15 0.00 32 1003.5
20260507202037 68 198 0.0 1.0 0.00 0.15 0.00 31 1003.5
20260507201539 68 148 0.0 0.0 0.00 0.15 0.00 33 1003.4
20260507201039 68 248 0.0 0.0 0.00 0.15 0.00 31 1003.4
20260507200539 68 260 0.0 0.0 0.00 0.15 0.00 33 1003.4
20260507200036 68 181 0.0 0.0 0.00 0.15 0.00 31 1003.4
20260507195537 68 236 0.0 0.0 0.00 0.15 0.00 28 1003.4
20260507195036 68 221 0.0 0.0 0.00 0.15 0.00 32 1003.5
20260507194536 68 225 0.0 0.0 0.00 0.15 0.00 30 1003.5
20260507193528 68 155 0.0 1.0 0.00 0.15 0.00 31 1003.6
20260507193026 68 226 0.0 1.0 0.00 0.15 0.00 35 1003.8
20260507192525 68 237 0.0 2.0 0.00 0.15 0.00 32 1003.8
20260507192025 68 236 0.0 2.0 0.00 0.15 0.00 34 1003.8
20260507191525 68 217 0.0 0.0 0.00 0.15 0.00 33 1003.8
20260507191024 68 203 0.0 0.0 0.00 0.15 0.00 32 1003.8
20260507190524 69 357 0.0 0.0 0.00 0.15 0.00 36 1003.9
20260507190023 68 209 0.0 0.0 0.00 0.15 0.00 32 1004.0
20260507185522 67 3 0.0 0.0 0.00 0.15 0.00 32 1004.1
20260507185021 68 236 0.0 0.0 0.00 0.15 0.00 31 1004.1
20260507184521 68 222 0.0 0.0 0.00 0.15 0.00 32 1004.2
20260507183519 67 253 0.0 0.0 0.00 0.15 0.00 31 1004.3
20260507183018 66 347 0.0 0.0 0.00 0.15 0.00 31 1004.4
20260507182517 67 209 0.0 1.0 0.00 0.15 0.00 31 1004.6
20260507182020 67 1 0.0 1.0 0.00 0.15 0.00 36 1004.5
20260507181515 66 356 0.0 1.0 0.00 0.15 0.00 37 1004.6
20260507181014 66 218 0.0 1.0 0.00 0.15 0.00 33 1004.8